Location: Newark
(25.5428°S, 54.5819°W)
Time: 03:06:56
(UTC+00:00)

Envisat - Pass Details

Date: 25 July 2019
Orbit: 764 x 766 km, 98.1° (Epoch: 20 August)

Event Time Altitude Azimuth Distance (km) Brightness Sun altitude
Rises 08:45:05 0° 64° (ENE) 3,225 7.6 -21.4°
Reaches altitude 10° 08:49:36 10° 102° (ESE) 2,311 6.4 -20.4°
Maximum altitude 08:50:34 11° 113° (ESE) 2,278 6.2 -20.2°
Drops below altitude 10° 08:51:32 10° 124° (ESE) 2,316 6.1 -20.0°
Sets 08:56:04 0° 161° (SSE) 3,255 6.3 -19.0°
